KC8YVF-1 Weather Reports


Display with metric or nautical units.
time (UTC)temp
F
wind
direction
speed
MPH
gust
MPH
rain 1hr
in
rain 24hr
in
rain mn
in
humidity
%
barometer
mb
20260906105358 55 68 0.0 0.0 0.00 0.00 0.00 88 1006.0
20260906103859 55 68 0.0 0.0 0.00 0.00 0.00 88 1006.0
20260906102359 55 68 0.0 0.0 0.00 0.00 0.00 88 1005.7
20260906100859 55 68 0.0 0.0 0.00 0.00 0.00 88 1005.7
20260906095400 55 68 0.0 0.0 0.00 0.00 0.00 88 1005.4
20260906093858 56 68 0.0 0.0 0.00 0.00 0.00 88 1005.7
20260906092358 56 68 0.0 0.0 0.00 0.00 0.00 88 1005.7
20260906090859 56 68 0.0 0.0 0.00 0.00 0.00 88 1005.4
20260906085359 56 68 0.0 0.0 0.00 0.00 0.00 88 1005.4
20260906083858 56 68 0.0 0.0 0.00 0.00 0.00 88 1005.4
20260906082358 56 68 0.0 0.0 0.00 0.00 0.00 88 1005.4
20260906080900 56 68 0.0 0.0 0.00 0.00 0.00 88 1005.0
20260906075359 56 68 0.0 0.0 0.00 0.00 0.00 87 1005.0
20260906073859 56 68 0.0 0.0 0.00 0.00 0.00 87 1005.3
20260906072359 56 68 0.0 0.0 0.00 0.00 0.00 87 1005.3
20260906070858 56 68 0.0 0.0 0.00 0.00 0.00 86 1005.4
20260906065359 56 68 0.0 0.0 0.00 0.00 0.00 86 1005.0
20260906063859 56 68 0.0 0.0 0.00 0.00 0.00 86 1005.0
20260906062359 57 68 0.0 0.0 0.00 0.00 0.00 85 1005.2
20260906060858 57 68 0.0 0.0 0.00 0.00 0.00 85 1005.1
20260906055359 57 68 0.0 0.0 0.00 0.00 0.00 84 1005.0
20260906053858 58 68 0.0 0.0 0.00 0.00 0.00 84 1004.9
20260906052359 58 68 0.0 0.0 0.00 0.00 0.00 84 1004.7
20260906050858 58 68 0.0 0.0 0.00 0.00 0.00 83 1004.7
20260906045359 59 68 0.0 0.0 0.00 0.00 0.00 83 1004.7
20260906043859 59 68 0.0 0.0 0.00 0.00 0.00 81 1004.7
20260906042358 59 68 0.0 0.0 0.00 0.00 0.00 80 1004.7
20260906040858 60 68 0.0 0.0 0.00 0.00 0.00 80 1004.6
20260906035359 61 68 0.0 0.0 0.00 0.00 0.00 79 1004.4
20260906033858 62 68 0.0 0.0 0.00 0.00 0.00 77 1004.4
20260906032359 62 68 0.0 0.0 0.00 0.00 0.00 77 1004.4
20260906030858 63 68 0.0 0.0 0.00 0.00 0.00 77 1004.4
20260906025400 64 68 0.0 0.0 0.00 0.00 0.00 76 1004.4
20260906023858 65 68 0.0 0.0 0.00 0.00 0.00 74 1004.3
20260906022358 65 68 0.0 0.0 0.00 0.00 0.00 74 1004.4
20260906020900 65 68 0.0 0.0 0.00 0.00 0.00 73 1004.4
20260906015359 66 45 0.0 0.0 0.00 0.00 0.00 72 1004.4
20260906013859 66 45 0.0 0.0 0.00 0.00 0.00 72 1004.0
20260906012358 67 45 0.0 0.0 0.00 0.00 0.00 71 1004.0
20260906010900 68 45 0.0 0.0 0.00 0.00 0.00 70 1004.0
20260906005359 69 68 0.0 0.0 0.00 0.00 0.00 69 1003.8
20260906003859 69 68 0.0 0.0 0.00 0.00 0.00 66 1003.7
20260906002359 70 68 0.0 0.0 0.00 0.00 0.00 65 1003.7
20260906000858 71 68 0.0 0.0 0.00 0.00 0.00 63 1003.7
20260905235358 72 45 0.0 0.0 0.00 0.00 0.00 62 1003.7
20260905233858 73 0 0.0 0.0 0.00 0.00 0.00 61 1003.6
20260905232359 73 90 0.0 0.0 0.00 0.00 0.00 60 1003.5
20260905230858 74 23 0.0 0.0 0.00 0.00 0.00 59 1003.3
20260905225358 76 45 0.0 0.0 0.00 0.00 0.00 58 1003.0
20260905223858 76 90 0.0 0.0 0.00 0.00 0.00 59 1003.0
20260905222359 77 45 0.0 0.0 0.00 0.00 0.00 59 1003.0
20260905220859 78 68 0.0 0.0 0.00 0.00 0.00 60 1003.0
20260905215358 78 68 0.0 0.0 0.00 0.00 0.00 59 1002.7
20260905213859 79 90 0.0 0.0 0.00 0.00 0.00 59 1002.7
20260905212400 79 45 3.0 5.0 0.00 0.00 0.00 60 1002.7
20260905210859 80 113 0.0 0.0 0.00 0.00 0.00 59 1002.7
20260905205358 81 113 0.0 0.0 0.00 0.00 0.00 60 1002.8
20260905203858 81 45 0.0 0.0 0.00 0.00 0.00 60 1002.7
20260905202358 81 23 0.0 0.0 0.00 0.00 0.00 61 1002.7
20260905200859 81 113 0.0 0.0 0.00 0.00 0.00 61 1002.7
20260905195359 81 23 1.0 2.0 0.00 0.00 0.00 63 1003.0
20260905193858 80 90 0.0 0.0 0.00 0.00 0.00 64 1003.0
20260905192359 80 90 0.0 0.0 0.00 0.00 0.00 67 1003.0
20260905190858 81 0 5.0 6.0 0.00 0.00 0.00 65 1003.0
20260905185400 81 90 0.0 0.0 0.00 0.00 0.00 65 1003.0
20260905183859 81 45 0.0 3.0 0.00 0.00 0.00 66 1003.3
20260905182359 79 0 0.0 0.0 0.00 0.00 0.00 67 1003.3
20260905180858 80 45 0.0 0.0 0.00 0.00 0.00 65 1003.1
20260905175359 80 68 0.0 0.0 0.00 0.00 0.00 66 1003.0
20260905173859 78 68 0.0 0.0 0.00 0.00 0.00 66 1003.0
20260905172359 79 90 0.0 0.0 0.00 0.00 0.00 66 1003.0
20260905170900 78 338 0.0 0.0 0.00 0.00 0.00 68 1003.0
20260905165400 77 90 0.0 0.0 0.00 0.00 0.00 68 1003.0
20260905163859 78 23 0.0 0.0 0.00 0.00 0.00 70 1003.2
20260905162359 76 113 0.0 0.0 0.00 0.00 0.00 71 1003.0
20260905160900 74 90 0.0 0.0 0.00 0.00 0.00 71 1003.0
20260905155400 73 90 7.0 7.0 0.00 0.00 0.00 72 1003.0
20260905153900 73 135 3.0 3.0 0.00 0.00 0.00 74 1003.0
20260905152358 72 68 0.0 0.0 0.00 0.00 0.00 75 1003.0
20260905150900 72 68 0.0 0.0 0.00 0.00 0.00 78 1002.9
20260905145359 72 113 0.0 0.0 0.00 0.00 0.00 79 1003.0
20260905143900 71 158 0.0 0.0 0.00 0.00 0.00 81 1002.8
20260905142359 71 90 1.0 1.0 0.00 0.00 0.00 80 1003.0
20260905140859 70 113 0.0 0.0 0.00 0.00 0.00 82 1002.7
20260905135359 70 113 0.0 0.0 0.00 0.00 0.00 82 1002.8
20260905133859 70 90 2.0 3.0 0.00 0.00 0.00 82 1003.0
20260905132358 70 113 0.0 0.0 0.00 0.00 0.00 84 1002.7
20260905130900 70 90 0.0 0.0 0.00 0.00 0.00 85 1002.7
20260905125359 69 68 0.0 0.0 0.00 0.00 0.00 87 1003.0
20260905123859 68 90 0.0 0.0 0.00 0.00 0.00 88 1002.7
20260905122358 68 90 0.0 0.0 0.00 0.00 0.00 89 1002.7
20260905120859 67 45 0.0 0.0 0.00 0.00 0.00 96 1002.7
20260905115400 67 90 0.0 0.0 0.00 0.00 0.00 96 1002.3
20260905113900 66 90 0.0 0.0 0.00 0.00 0.00 96 1002.0
20260905112359 66 90 0.0 0.0 0.00 0.00 0.00 96 1002.0
20260905110858 66 45 0.0 0.0 0.00 0.00 0.00 96 1001.6